Weather History for Charlevoix, MI

Change the Weather History Date:

Tuesday, February 26, 2013

  Actual Average Record
Temperature  
Mean Temperature 30 °F -  
Max Temperature 35 °F 47 °F 37 °F (2004)
Min Temperature 25 °F 32 °F 0 °F (2014)
Degree Days  
Heating Degree Days 35    
Moisture  
Dew Point 24 °F    
Average Humidity 74    
Maximum Humidity 80    
Minimum Humidity 64    
Precipitation  
Precipitation 0.00 in - - ()
Sea Level Pressure  
Sea Level Pressure 30.02 in    
Wind  
Wind Speed 9 mph (East)    
Max Wind Speed 24 mph    
Max Gust Speed 32 mph    
Visibility 10 miles    
Events      
Averages and records for this station are not official NWS values.
T = Trace of Precipitation, MM = Missing Value Source: NWS Daily Summary

Daily Weather History Graph

Daily Weather History Graph

Search for Another Location

Airport:

Trip Planner

Search our weather history database for the weather conditions in past years. The results will help you decide how hot, cold, wet, or windy it might be!

Date:

Astronomy

Feb. 26, 2013 Rise Set
Actual Time 7:24 AM EST 6:24 PM EST
Civil Twilight 6:54 AM EST 6:54 PM EST
Nautical Twilight 6:20 AM EST 7:28 PM EST
Astronomical Twilight 5:46 AM EST 8:02 PM EST
Moon 7:46 PM EST (2/26) 7:21 AM EST (2/26)
Length of Visible Light 11h 59m
Length of Day
11h 00m
Full, 99% of the Moon is Illuminated
Feb 26
Full
Mar 4
Last Quarter
Mar 11
New
Mar 19
First Quarter
Mar 27
Full

Hourly Weather History & Observations

Time (EST) Temp. Windchill Dew Point Humidity Pressure Visibility Wind Dir Wind Speed Gust Speed Precip Events Conditions
12:14 AM 31.5 °F 28.1 °F 25.9 °F 80% 30.16 in 10.0 mi ESE 3.5 mph - N/A   Overcast
12:35 AM 31.6 °F 28.3 °F 25.5 °F 78% 30.16 in 10.0 mi ESE 3.5 mph - N/A   Overcast
12:55 AM 31.8 °F 28.5 °F 25.5 °F 78% 30.17 in 10.0 mi ESE 3.5 mph - N/A   Overcast
1:14 AM 32.0 °F 28.7 °F 25.2 °F 76% 30.18 in 10.0 mi ESE 3.5 mph - N/A   Overcast
1:35 AM 31.8 °F 28.5 °F 25.3 °F 77% 30.18 in 10.0 mi East 3.5 mph - N/A   Overcast
1:55 AM 31.1 °F - 25.3 °F 79% 30.17 in 10.0 mi Calm Calm - N/A   Overcast
2:14 AM 31.1 °F - 25.7 °F 80% 30.17 in 10.0 mi Calm Calm - N/A   Overcast
2:35 AM 31.1 °F 27.7 °F 25.2 °F 79% 30.17 in 10.0 mi ESE 3.5 mph - N/A   Overcast
2:54 AM 31.5 °F 28.1 °F 24.8 °F 76% 30.17 in 10.0 mi ESE 3.5 mph - N/A   Overcast
3:15 AM 31.6 °F 28.3 °F 24.8 °F 76% 30.17 in 10.0 mi ESE 3.5 mph - N/A   Overcast
3:35 AM 31.6 °F 27.0 °F 24.1 °F 74% 30.15 in 10.0 mi East 4.6 mph - N/A   Overcast
3:54 AM 31.6 °F 27.0 °F 24.1 °F 74% 30.15 in 10.0 mi ESE 4.6 mph - N/A   Overcast
4:15 AM 31.5 °F 26.8 °F 23.9 °F 74% 30.14 in 10.0 mi East 4.6 mph - N/A   Overcast
4:34 AM 31.1 °F 26.4 °F 23.9 °F 75% 30.14 in 10.0 mi East 4.6 mph - N/A   Overcast
4:55 AM 31.1 °F 26.4 °F 23.9 °F 75% 30.14 in 10.0 mi ESE 4.6 mph - N/A   Overcast
5:15 AM 31.1 °F 26.4 °F 23.2 °F 72% 30.14 in 10.0 mi ESE 4.6 mph - N/A   Overcast
5:34 AM 31.1 °F 26.4 °F 23.2 °F 72% 30.13 in 10.0 mi ESE 4.6 mph - N/A   Overcast
5:55 AM 31.1 °F 25.4 °F 23.4 °F 73% 30.13 in 10.0 mi East 5.8 mph - N/A   Overcast
6:14 AM 30.9 °F 24.3 °F 23.2 °F 73% 30.13 in 10.0 mi ESE 6.9 mph - N/A   Overcast
6:35 AM 29.8 °F 23.0 °F 22.5 °F 74% 30.12 in 10.0 mi East 6.9 mph - N/A   Mostly Cloudy
6:55 AM 28.9 °F 22.8 °F 21.6 °F 74% 30.12 in 10.0 mi ESE 5.8 mph - N/A   Clear
7:14 AM 28.2 °F 23.1 °F 21.0 °F 74% 30.12 in 10.0 mi ESE 4.6 mph - N/A   Clear
7:35 AM 27.9 °F 24.0 °F 21.0 °F 75% 30.12 in 10.0 mi East 3.5 mph - N/A   Clear
7:54 AM 25.5 °F 21.3 °F 19.6 °F 78% 30.11 in 10.0 mi East 3.5 mph - N/A   Clear
8:14 AM 25.9 °F 21.7 °F 19.8 °F 78% 30.11 in 10.0 mi East 3.5 mph - N/A   Clear
8:35 AM 27.5 °F 22.2 °F 20.3 °F 74% 30.11 in 10.0 mi East 4.6 mph - N/A   Clear
8:54 AM 28.4 °F 23.3 °F 21.0 °F 74% 30.12 in 10.0 mi East 4.6 mph - N/A   Mostly Cloudy
9:15 AM 29.7 °F 23.7 °F 22.1 °F 73% 30.11 in 10.0 mi ENE 5.8 mph - N/A   Overcast
9:35 AM 30.7 °F 22.6 °F 22.3 °F 71% 30.10 in 10.0 mi ENE 9.2 mph - N/A   Overcast
9:54 AM 31.8 °F 21.8 °F 23.0 °F 70% 30.09 in 10.0 mi East 13.8 mph - N/A   Overcast
10:15 AM 32.2 °F 23.2 °F 23.9 °F 72% 30.09 in 10.0 mi ENE 11.5 mph - N/A   Overcast
10:34 AM 32.4 °F 23.0 °F 24.1 °F 72% 30.07 in 10.0 mi East 12.7 mph 19.6 mph N/A   Overcast
10:55 AM 32.2 °F 23.8 °F 24.4 °F 73% 30.07 in 10.0 mi East 10.4 mph - N/A   Overcast
11:15 AM 32.5 °F 23.7 °F 24.8 °F 73% 30.05 in 10.0 mi East 11.5 mph 23.0 mph N/A   Overcast
11:34 AM 33.4 °F 22.7 °F 24.8 °F 71% 30.05 in 10.0 mi East 17.3 mph 25.3 mph N/A   Overcast
11:55 AM 33.8 °F 22.2 °F 25.3 °F 71% 30.03 in 10.0 mi East 20.7 mph 28.8 mph N/A   Overcast
12:15 PM 33.8 °F 23.2 °F 25.3 °F 71% 30.01 in 10.0 mi East 17.3 mph 25.3 mph N/A   Overcast
12:34 PM 34.0 °F 23.0 °F 25.3 °F 71% 30.00 in 10.0 mi East 18.4 mph 27.6 mph N/A   Overcast
12:55 PM 34.3 °F 22.6 °F 24.6 °F 68% 29.98 in 10.0 mi East 21.9 mph 31.1 mph N/A   Overcast
1:15 PM 35.2 °F 24.4 °F 24.6 °F 65% 29.97 in 10.0 mi East 19.6 mph 24.2 mph N/A   Mostly Cloudy
1:34 PM 34.7 °F 23.7 °F 23.7 °F 64% 29.96 in 10.0 mi East 19.6 mph 27.6 mph N/A   Scattered Clouds
1:55 PM 35.1 °F 24.1 °F 24.4 °F 65% 29.95 in 10.0 mi East 19.6 mph 27.6 mph N/A   Mostly Cloudy
2:14 PM 34.5 °F 22.5 °F 24.4 °F 67% 29.94 in 10.0 mi East 23.0 mph 28.8 mph N/A   Overcast
2:35 PM 34.2 °F 23.0 °F 25.0 °F 69% 29.94 in 10.0 mi East 19.6 mph 26.5 mph N/A   Overcast
2:55 PM 33.8 °F 23.2 °F 25.7 °F 72% 29.94 in 10.0 mi East 17.3 mph 26.5 mph N/A   Overcast
3:14 PM 32.9 °F 21.6 °F 26.1 °F 76% 29.94 in 10.0 mi East 18.4 mph - N/A   Overcast
3:35 PM 32.9 °F 21.3 °F 25.0 °F 73% 29.93 in 10.0 mi East 19.6 mph 27.6 mph N/A   Overcast
3:54 PM 32.9 °F 22.4 °F 24.6 °F 72% 29.92 in 10.0 mi ENE 16.1 mph 32.2 mph N/A   Overcast
4:15 PM 32.5 °F 21.9 °F 24.8 °F 73% 29.92 in 10.0 mi ENE 16.1 mph 27.6 mph N/A   Overcast
4:35 PM 32.0 °F 18.9 °F 24.6 °F 74% 29.91 in 10.0 mi ENE 24.2 mph 29.9 mph N/A   Overcast
4:54 PM 32.0 °F 19.2 °F 23.9 °F 72% 29.92 in 10.0 mi East 23.0 mph 28.8 mph N/A   Overcast
5:15 PM 32.0 °F 20.1 °F 23.9 °F 72% 29.91 in 10.0 mi ENE 19.6 mph 31.1 mph N/A   Overcast
5:34 PM 32.0 °F 20.5 °F 24.3 °F 73% 29.91 in 10.0 mi ENE 18.4 mph 26.5 mph N/A   Overcast
5:55 PM 31.8 °F 19.6 °F 24.1 °F 73% 29.91 in 10.0 mi ENE 20.7 mph 26.5 mph N/A   Overcast
6:15 PM 31.6 °F 19.7 °F 23.9 °F 73% 29.91 in 10.0 mi ENE 19.6 mph 28.8 mph N/A   Overcast
6:34 PM 31.6 °F 20.0 °F 23.9 °F 73% 29.91 in 10.0 mi ENE 18.4 mph 24.2 mph N/A   Overcast
6:55 PM 31.6 °F 20.4 °F 24.3 °F 74% 29.91 in 10.0 mi ENE 17.3 mph 25.3 mph N/A   Overcast
7:15 PM 31.6 °F 19.3 °F 24.4 °F 75% 29.91 in 10.0 mi ENE 20.7 mph 29.9 mph N/A   Overcast
7:34 PM 31.1 °F 19.3 °F 24.4 °F 76% 29.91 in 10.0 mi ENE 18.4 mph 28.8 mph N/A   Mostly Cloudy
7:55 PM 31.3 °F 18.5 °F 24.6 °F 76% 29.90 in 10.0 mi ENE 21.9 mph 25.3 mph N/A   Mostly Cloudy
8:14 PM 31.1 °F 18.3 °F 24.6 °F 77% 29.89 in 10.0 mi ENE 21.9 mph 29.9 mph N/A   Scattered Clouds
8:35 PM 31.1 °F 18.0 °F 24.8 °F 77% 29.88 in 10.0 mi ENE 23.0 mph 32.2 mph N/A   Scattered Clouds
8:54 PM 31.1 °F 18.9 °F 24.4 °F 76% 29.87 in 10.0 mi ENE 19.6 mph 31.1 mph N/A   Scattered Clouds
9:15 PM 31.1 °F 20.1 °F 24.4 °F 76% 29.87 in 10.0 mi ENE 16.1 mph 23.0 mph N/A   Scattered Clouds
9:34 PM 31.1 °F 19.3 °F 24.6 °F 77% 29.86 in 10.0 mi ENE 18.4 mph 28.8 mph N/A   Scattered Clouds
9:55 PM 31.3 °F 18.9 °F 24.6 °F 76% 29.85 in 10.0 mi ENE 20.7 mph 26.5 mph N/A   Scattered Clouds
10:14 PM 31.5 °F 19.8 °F 24.8 °F 76% 29.83 in 10.0 mi ENE 18.4 mph 29.9 mph N/A   Clear
10:34 PM 31.3 °F 18.5 °F 24.8 °F 77% 29.82 in 10.0 mi ENE 21.9 mph 32.2 mph N/A   Clear
10:55 PM 31.5 °F 20.1 °F 25.0 °F 77% 29.82 in 10.0 mi ENE 17.3 mph 24.2 mph N/A   Scattered Clouds
11:14 PM 31.5 °F 19.8 °F 25.3 °F 78% 29.80 in 10.0 mi ENE 18.4 mph 24.2 mph N/A   Scattered Clouds
11:54 PM 31.6 °F 20.4 °F 25.7 °F 79% 29.79 in 10.0 mi NE 17.3 mph 25.3 mph N/A   Scattered Clouds